TimeCST,TemperatureF,Dew PointF,Humidity,Sea Level PressureIn,VisibilityMPH,Wind Direction,Wind SpeedMPH,Gust SpeedMPH,PrecipitationIn,Events,Conditions,WindDirDegrees,DateUTC
12:50 AM,64.4,60.8,88,29.99,7.0,Calm,Calm,-,N/A,Fog,Shallow Fog,0,2012-11-26 06:50:00
1:50 AM,66.2,64.4,94,29.97,7.0,Calm,Calm,-,N/A,Fog,Shallow Fog,0,2012-11-26 07:50:00
2:50 AM,66.2,64.4,94,29.97,7.0,Calm,Calm,-,N/A,Fog,Shallow Fog,0,2012-11-26 08:50:00
3:50 AM,66.2,64.4,94,29.97,7.0,Calm,Calm,-,N/A,Fog,Shallow Fog,0,2012-11-26 09:50:00
4:50 AM,66.2,64.4,94,29.97,7.0,Calm,Calm,-,N/A,Fog,Shallow Fog,0,2012-11-26 10:50:00
5:50 AM,66.2,66.2,100,29.98,0.2,Calm,Calm,-,N/A,Fog,Fog,0,2012-11-26 11:50:00
6:50 AM,64.4,64.4,100,29.99,0.2,Calm,Calm,-,N/A,Fog,Fog,0,2012-11-26 12:50:00
7:50 AM,64.4,64.4,100,30.02,0.2,Calm,Calm,-,N/A,Fog,Fog,0,2012-11-26 13:50:00
8:30 AM,66.2,66.2,100,30.02,3.0,Calm,Calm,-,N/A,,Mostly Cloudy,0,2012-11-26 14:30:00
8:50 AM,68.0,68.0,100,30.04,4.0,SW,3.5,-,N/A,,Mostly Cloudy,230,2012-11-26 14:50:00
9:50 AM,71.6,69.8,94,30.04,5.0,SSW,6.9,-,N/A,,Mostly Cloudy,200,2012-11-26 15:50:00
11:50 AM,78.8,68.0,69,30.00,7.0,SSW,13.8,-,N/A,,Mostly Cloudy,200,2012-11-26 17:50:00
12:50 PM,82.4,60.8,48,29.98,10.0,SSW,13.8,-,N/A,,Mostly Cloudy,200,2012-11-26 18:50:00
1:50 PM,82.4,55.4,39,29.96,10.0,SSW,13.8,-,N/A,,Mostly Cloudy,200,2012-11-26 19:50:00
2:50 PM,82.4,60.8,48,29.96,10.0,SSW,15.0,-,N/A,,Mostly Cloudy,200,2012-11-26 20:50:00
3:50 PM,80.6,60.8,51,29.96,10.0,SSW,12.7,-,N/A,,Mostly Cloudy,200,2012-11-26 21:50:00
4:50 PM,78.8,62.6,57,29.98,10.0,SSW,12.7,-,N/A,,Mostly Cloudy,200,2012-11-26 22:50:00
5:50 PM,77.0,64.4,65,30.00,10.0,SSW,8.1,-,N/A,,Mostly Cloudy,210,2012-11-26 23:50:00
6:50 PM,75.2,66.2,73,30.02,10.0,South,4.6,-,N/A,,Mostly Cloudy,190,2012-11-27 00:50:00
7:50 PM,73.4,64.4,73,30.03,10.0,South,3.5,-,N/A,,Mostly Cloudy,180,2012-11-27 01:50:00
8:50 PM,71.6,66.2,83,30.04,10.0,South,4.6,-,N/A,,Mostly Cloudy,180,2012-11-27 02:50:00
9:50 PM,71.6,68.0,88,30.06,10.0,SW,3.5,-,N/A,,Overcast,220,2012-11-27 03:50:00
10:50 PM,71.6,68.0,88,30.08,10.0,SSW,4.6,-,N/A,,Mostly Cloudy,210,2012-11-27 04:50:00
11:50 PM,68.0,64.4,88,30.10,5.0,North,16.1,26.5,N/A,Rain,Rain Showers,360,2012-11-27 05:50:00